Find Starlink 37322

NORAD ID: 68715 Int'l Des: 2026-081 Owner: SPXS Country: US Constellation: starlink operational
LEOCIRCULAR

Current View

Loading 3D Globe...

About Starlink 37322

Description loading...

Upcoming Passes

Passes for default location (London). Set your location on the main map for personalized predictions.

Altitude History

Loading altitude history...

Two-Line Element Set

1 68715U 26081S 26150.84597392 .00024284 00000-0 72755-3 0 9994
2 68715 53.1586 12.3172 0001040 66.8610 293.2502 15.34398933 7328
Epoch: May 30, 2026 • Age: 8 hours

Current Status

Altitude 462.5 km
Velocity 7.64 km/s
Sub-Earth Point 8.33°N, 65.9°E
Launch Date Apr 14, 2026
Age 0.1 years
Type internet

Technical Details

Classification Payload
Mass 575.00 kg
Dry Mass 530.00 kg
Total Mass 575.00 kg
Length 0.30 m
Diameter 4.10 m
Span 29.00 m
Shape Box + pan
Manufacturer SPXS
Bus Type Starlink V2MO
Phase Status In Orbit
Owner/State SPXS/US

Most Searched